Content
SEND FEEDBACK

Daily
Averages
Monthly
Summary
United States of America

NEW YORK - CENTRAL PARK, NEW YORK


Home > North America > United States > New York
Elevation: 14 feet     Latitude: 40 47N     Longitude: 073 58W

WEATHER
 
SELECT A DAY
Number of Records: 152,933;   Date Range: 11/1/95 - 12/16/14
 
SHARE

PRINT THIS DATA

[ ← Previous Day ]
WEATHER ALMANAC - NOVEMBER 1, 2013
[ Next Day → ]
[ °C ]   °F
Weather ElementAverageHighLow
Temperature65.8 °F69.1 °F (5:51 am)62.1 °F (10:14 am)
Dewpoint56.9 °F62.1 °F (8:51 am)50 °F (4:51 pm)
Humidity73.7 %87 % (1:51 am)51 % (4:51 pm)
Barometer29.63 in29.75 in (1:51 am)29.56 in (4:51 pm)
Wind Speed6.3 mph23 mph (10:04 am)
Wind Gust43.7 mph (10:04 am)
Weather ElementAverage
Visibility8.4 mi
Wind DirectionENE (58.9 °)

Weather ElementTotal
Precipitation0.29 in
Cooling Degree Days0.6 (Base 65)
Growing Degree Days15.6 (Base 50)
Averaged from 27 records on November 1, 2013
WEATHER CONDITIONS BREAKOUT
WIND DIRECTION BREAKOUT
WEATHER BY HOUR - NOVEMBER 1, 2013
[ °C ]   °F
Local TimeTemperatureDewpointHumidityBarometerVisibilityWind DirectionWind SpeedGust SpeedPrecipitationEventsConditions
1:51 AM64.9 °F61.0 °F87 %29.75 in10.0 miVariable3.5 mphPartly Cloudy
2:51 AM66.0 °F60.1 °F81 %29.72 in10.0 miVariable3.5 mphClear
3:51 AM66.0 °F60.1 °F81 %29.69 in10.0 miVariable5.8 mphScattered Clouds
4:51 AM66.9 °F59.0 °F76 %29.65 in10.0 miVariable6.9 mphMostly Cloudy
5:51 AM69.1 °F60.1 °F73 %29.61 in10.0 miVariable6.9 mphMostly Cloudy
6:51 AM69.1 °F61.0 °F75 %29.61 in10.0 miVariable5.8 mphMostly Cloudy
7:51 AM68.0 °F61.0 °F78 %29.58 in10.0 miVariable6.9 mph0.01 inRainLight Rain
8:51 AM68.0 °F62.1 °F81 %29.58 in7.0 miVariable5.8 mph18.4 mph0.02 inRainLight Rain
9:51 AM69.1 °F61.0 °F75 %29.58 in9.0 miNorth0.02 inRainLight Rain
10:04 AM68.0 °F61.0 °F78 %29.66 in1.2 miWest (280°)23.0 mph43.7 mph0.00 inRainLight Rain
10:06 AM64.9 °F60.1 °F84 %29.66 in0.8 miWest (270°)11.5 mph43.7 mph0.02 inRainHeavy Rain
10:14 AM62.1 °F57.9 °F86 %29.65 in1.2 miVariable5.8 mph27.6 mph0.07 inRainLight Rain
10:17 AM62.1 °F57.9 °F86 %29.65 in4.0 miNorth0.07 inRainLight Rain
10:51 AM62.1 °F57.9 °F86 %29.61 in10.0 miWest (280°)3.5 mph0.08 inOvercast
11:51 AM64.0 °F55.9 °F75 %29.61 in10.0 miVariable3.5 mphOvercast
12:51 PM64.9 °F55.0 °F70 %29.59 in10.0 miVariable3.5 mph19.6 mphOvercast
1:51 PM66.9 °F55.0 °F66 %29.57 in10.0 miVariable5.8 mphOvercast
2:51 PM68.0 °F53.1 °F59 %29.57 in10.0 miWest (260°)10.4 mph19.6 mphMostly Cloudy
3:51 PM68.0 °F51.1 °F55 %29.57 in10.0 miVariable5.8 mph19.6 mphPartly Cloudy
4:51 PM69.1 °F50.0 °F51 %29.56 in10.0 miWSW (240°)6.9 mphClear
5:51 PM66.9 °F50.0 °F54 %29.59 in10.0 miVariable4.6 mphClear
6:51 PM64.9 °F53.1 °F65 %29.62 in4.0 miVariable5.8 mphHaze
7:51 PM64.9 °F53.1 °F65 %29.64 in10.0 miNorthClear
8:51 PM64.9 °F53.1 °F65 %29.65 in10.0 miVariable4.6 mphClear
9:51 PM64.0 °F55.0 °F73 %29.67 in10.0 miVariable5.8 mphClear
10:51 PM62.1 °F55.9 °F80 %29.70 in10.0 miWest (260°)5.8 mphClear
11:51 PM62.1 °F57.0 °F84 %29.68 in10.0 miCalmClear
Hourly data recorded from KNYC, located miles away from New York - Central Park, New York







STORIES FROM OUR PARTNERS